DateTimeUTC,F1_A11,F1_S11,BsB_S11,BsG_S11,BsR_S11,BbsB_S11,BbsG_S11,BbsR_S11,BaB_A11,BaG_A11,BaR_A11,Tu_S11,T_S11,Uu_S11,U_S11,P_S11,T1_A11
2021-08-24T06:00:00Z,00000200,21000000,,,,,,,0000.04,-000.05,0000.03,17.9,25.2,,00.0,0679.7,30.9
2021-08-24T06:01:00Z,00000200,21000000,,,,,,,0000.11,0000.32,0000.23,17.8,25.2,,00.0,0679.7,30.9
2021-08-24T06:02:00Z,00000200,21000000,,,,,,,0000.35,0000.16,-000.26,17.8,25.2,,00.0,0679.7,30.9
2021-08-24T06:03:00Z,00000200,61000000,,,,,,,0000.52,0000.15,0000.88,17.8,25.2,,00.0,0679.7,30.9
2021-08-24T06:04:00Z,00000200,41000000,-000.18,-000.16,0000.02,0000.67,-000.10,-000.02,-000.14,0000.32,-000.06,18.2,25.1,00.0,00.0,0680.6,31.0
2021-08-24T06:05:00Z,00000200,01000000,-000.13,0000.45,-000.16,0000.29,-000.11,0000.18,0000.06,0000.32,0000.05,18.4,25.1,00.0,00.0,0680.7,31.0
2021-08-24T06:06:00Z,00000200,01000000,0000.65,0000.50,0000.04,-000.24,0000.09,0000.10,-000.23,-000.36,-000.18,18.5,25.1,00.0,00.0,0680.7,31.0
2021-08-24T06:07:00Z,00000200,01000000,0000.71,-000.02,-000.31,0000.28,0000.39,0000.19,-000.09,0000.02,-000.21,18.6,25.1,00.0,00.0,0680.7,31.0
2021-08-24T06:08:00Z,00000200,01000000,0000.55,0000.31,-000.30,-000.28,-000.14,-000.04,-000.26,-000.43,-000.05,18.6,25.1,00.0,00.0,0680.7,31.0
2021-08-24T06:09:00Z,00000200,01000000,0000.54,0000.02,-000.17,-000.16,-000.16,0000.17,-000.52,-000.26,-000.31,18.6,25.1,00.0,00.0,0680.7,31.0
2021-08-24T06:10:00Z,00000200,01000000,0000.66,0000.15,0000.16,-000.47,0000.20,0000.24,0000.10,-000.33,0000.05,18.5,25.1,00.0,00.0,0680.8,31.0
2021-08-24T06:11:00Z,00000200,01000000,0000.08,-000.14,0000.19,0000.04,0000.03,0000.16,0000.11,0000.42,-000.22,18.4,25.1,00.0,00.0,0680.7,30.9
2021-08-24T06:12:00Z,00000200,01000000,0001.12,0000.22,-000.25,0000.11,0000.04,0000.20,-000.06,0000.19,-000.04,18.3,25.0,00.0,00.0,0680.8,30.9
2021-08-24T06:13:00Z,00000200,01000000,0000.67,0000.34,-000.05,0000.22,-000.11,0000.15,-000.09,-000.43,0000.01,18.3,25.0,00.0,00.0,0680.7,30.9
2021-08-24T06:14:00Z,00000200,01000000,0000.98,0000.20,-000.18,-000.04,-000.08,0000.06,-000.03,-000.03,-000.28,18.2,25.0,00.0,00.0,0680.8,30.9
2021-08-24T06:15:00Z,00000200,01000000,-000.55,0000.30,-000.19,0000.69,0000.37,0000.06,0000.40,0000.24,0000.45,18.2,25.0,00.0,00.0,0680.8,30.9
2021-08-24T06:16:00Z,00000200,01000000,0000.38,0000.04,-000.02,-000.29,0000.15,0000.31,-000.07,-000.05,-000.22,18.2,24.9,00.0,00.0,0680.8,30.9
2021-08-24T06:17:00Z,00000200,01000000,-000.26,0000.29,0000.04,-000.22,-000.04,0000.17,0000.20,0000.25,0000.41,18.2,24.9,00.0,00.0,0680.8,30.9
2021-08-24T06:18:00Z,00000200,01000000,0000.59,0000.40,-000.27,0000.17,0000.08,-000.09,0000.18,0000.02,-000.09,18.3,24.9,00.0,00.0,0680.8,30.9
2021-08-24T06:19:00Z,00000200,01000000,0000.37,0000.17,-000.25,0000.74,0000.23,-000.27,0000.08,0000.22,0000.53,18.4,25.0,00.0,00.0,0680.8,30.9
2021-08-24T06:20:00Z,00000200,01000000,0000.78,0000.16,-000.30,-000.29,0000.02,0000.00,-000.06,0000.01,0000.05,18.5,25.0,,00.0,0680.8,31.0
2021-08-24T06:21:00Z,00000200,01000000,0000.39,-000.01,-000.13,0000.72,-000.07,-000.06,0000.35,0000.09,-000.30,18.6,25.1,00.0,00.0,0680.9,31.0
2021-08-24T06:22:00Z,00000200,01000000,0001.04,0000.18,-000.15,0000.40,0000.19,0000.13,-000.18,0000.06,0000.07,18.6,25.1,00.0,00.0,0680.9,31.0
2021-08-24T06:23:00Z,00000200,01000000,0000.96,-000.10,-000.11,0000.44,0000.21,0000.18,-000.17,-000.59,-000.14,18.6,25.1,00.0,00.0,0680.9,31.0
2021-08-24T06:24:00Z,00000200,01000000,0000.07,0000.27,-000.16,-000.11,0000.29,0000.10,-000.18,-000.18,-000.21,18.5,25.1,00.0,00.0,0680.9,30.9
2021-08-24T06:25:00Z,00000200,01000000,0000.13,0000.39,0000.26,0000.05,-000.05,0000.06,0000.00,0000.46,-000.11,18.4,25.0,,00.0,0680.9,30.9
2021-08-24T06:26:00Z,00000200,01000000,-000.21,0000.42,-000.06,0000.45,0000.10,0000.21,-000.19,-000.54,-000.10,18.3,25.0,00.0,00.0,0681.0,30.9
2021-08-24T06:27:00Z,00000200,01000000,0000.03,0000.14,0000.13,0000.53,0000.10,-000.07,-000.26,0000.11,-000.05,18.3,25.0,00.0,00.0,0680.9,30.9
2021-08-24T06:28:00Z,00000200,01000000,0000.34,0000.28,-000.08,0000.26,0000.14,-000.14,0000.16,-000.02,-000.38,18.3,25.0,00.0,00.0,0681.0,30.9
2021-08-24T06:29:00Z,00000200,01000000,0000.48,-000.01,0000.19,-000.41,0000.15,0000.27,0000.17,0000.12,0000.42,18.2,24.9,00.0,00.0,0681.0,30.9
2021-08-24T06:30:00Z,00000200,01000000,0000.02,0000.18,-000.24,-000.01,-000.08,-000.12,-000.26,0000.05,0000.28,18.2,24.9,00.0,00.0,0681.0,30.9
2021-08-24T06:31:00Z,00000200,01000000,0000.92,0000.20,0000.03,0000.20,-000.17,-000.06,0000.54,0000.27,0000.12,18.1,24.9,00.0,00.0,0681.0,30.9
2021-08-24T06:32:00Z,00000200,01000000,0000.24,0000.47,-000.02,0000.46,0000.25,0000.04,0000.19,0000.11,0000.13,18.2,24.9,00.0,00.0,0681.1,30.9
2021-08-24T06:33:00Z,00000200,01000000,0000.65,0000.22,-000.14,-000.40,0000.04,0000.01,-000.01,0000.06,0000.20,18.2,24.9,00.0,00.0,0681.1,30.9
2021-08-24T06:34:00Z,00000200,01000000,0000.55,0000.25,0000.08,0000.67,-000.25,0000.21,0000.24,0000.44,-000.29,18.4,24.9,00.0,00.0,0681.1,30.9
2021-08-24T06:35:00Z,00000200,01000000,0000.65,0000.32,-000.01,-000.00,-000.23,0000.34,0000.10,0000.00,0000.22,18.5,25.0,00.0,00.0,0681.2,31.0
2021-08-24T06:36:00Z,00000200,01000000,0000.24,-000.34,-000.03,-000.15,0000.09,0000.07,-000.08,0000.16,0000.43,18.5,25.0,00.0,00.0,0681.2,30.9
2021-08-24T06:37:00Z,00000200,01000000,0000.99,0000.13,0000.04,-000.14,0000.13,-000.11,0000.05,-000.35,-000.46,18.5,25.0,00.0,00.0,0681.2,30.9
2021-08-24T06:38:00Z,00000200,01000000,0000.24,0000.11,-000.16,0000.19,0000.13,0000.47,-000.14,-000.28,-000.14,18.4,25.0,00.0,00.0,0681.2,31.0
2021-08-24T06:39:00Z,00000200,01000000,0000.27,0000.18,-000.25,0000.09,-000.31,0000.25,-000.15,0000.09,0000.05,18.4,25.0,00.0,00.0,0681.2,30.9
2021-08-24T06:40:00Z,00000200,01000000,0000.26,0000.18,-000.13,0000.13,-000.07,0000.22,0000.65,0000.29,0000.19,18.3,24.9,00.0,00.0,0681.2,30.9
2021-08-24T06:41:00Z,00000200,01000000,0000.58,0000.38,0000.02,0000.12,-000.15,0000.05,-000.35,-000.16,-000.06,18.2,24.9,00.1,00.0,0681.2,30.9
2021-08-24T06:42:00Z,00000200,01000000,0000.45,0000.53,-000.49,0000.06,0000.16,-000.01,0000.35,0000.38,-000.00,18.2,24.9,00.0,00.0,0681.2,30.9
2021-08-24T06:43:00Z,00000200,01000000,0000.87,0000.37,0000.08,0000.03,-000.22,0000.30,-000.15,-000.08,0000.13,18.2,24.8,00.1,00.0,0681.2,30.9
2021-08-24T06:44:00Z,00000200,01000000,0000.59,0000.13,-000.03,0000.60,0000.34,0000.23,0000.40,0000.39,0000.12,18.1,24.8,00.1,00.0,0681.2,30.9
2021-08-24T06:45:00Z,00000200,01000000,-000.19,0000.23,0000.13,-000.00,-000.11,0000.13,-000.05,-000.01,0000.21,18.1,24.8,00.1,00.1,0681.3,30.9
2021-08-24T06:46:00Z,00000200,01000000,0000.83,0000.01,-000.11,0000.28,0000.01,0000.20,0000.52,0000.48,0000.35,18.0,24.8,00.1,00.1,0681.2,30.9
2021-08-24T06:47:00Z,00000200,01000000,0000.47,0000.30,-000.07,-000.05,-000.05,0000.05,0000.26,0000.10,0000.01,18.0,24.8,00.1,00.1,0681.3,30.9
2021-08-24T06:48:00Z,00000200,01000000,0001.00,0000.25,-000.08,0000.87,-000.16,0000.34,-000.02,0000.34,0000.49,18.1,24.8,00.2,00.1,0681.3,30.9
2021-08-24T06:49:00Z,00000200,01000000,0000.40,0000.18,-000.18,0000.61,-000.07,0000.19,0000.39,0000.19,0000.10,18.2,24.9,00.1,00.1,0681.3,30.9
2021-08-24T06:50:00Z,00000200,01000000,-000.34,0000.46,0000.16,0000.40,0000.33,0000.06,-000.10,0000.02,0000.03,18.4,24.9,00.1,00.1,0681.4,31.0
2021-08-24T06:51:00Z,00000200,01000000,-000.36,0000.04,-000.02,-000.03,0000.12,0000.36,0000.20,0000.08,-000.15,18.5,25.0,00.1,00.1,0681.4,31.0
2021-08-24T06:52:00Z,00000200,01000000,0000.18,0000.35,-000.18,0000.28,-000.06,0000.16,0000.21,0000.49,0000.29,18.5,25.0,00.2,00.1,0681.4,31.0
2021-08-24T06:53:00Z,00000200,01000000,0000.66,0000.13,-000.03,-000.18,0000.13,0000.19,-000.16,-000.36,-000.21,18.6,25.0,00.2,00.1,0681.4,31.0
2021-08-24T06:54:00Z,00000200,01000000,0000.11,0000.00,0000.15,0000.03,0000.08,0000.16,-000.10,-000.04,-000.42,18.5,25.0,00.2,00.1,0681.5,31.0
2021-08-24T06:55:00Z,00000200,01000000,0000.08,0000.54,-000.10,0000.30,-000.11,0000.09,0000.15,-000.32,0000.30,18.5,25.0,00.2,00.1,0681.5,30.9
2021-08-24T06:56:00Z,00000200,01000000,0000.11,0000.37,0000.12,0000.04,0000.12,-000.01,0000.16,0000.35,0000.18,18.4,25.0,00.3,00.2,0681.5,30.9
2021-08-24T06:57:00Z,00000200,41000000,,,,,,,-000.17,-000.21,-000.24,18.4,25.0,,00.0,0681.5,30.9
2021-08-24T06:58:00Z,00000200,61000000,,,,,,,0000.03,0000.30,0000.03,18.0,25.1,,00.0,0680.5,30.9
2021-08-24T06:59:00Z,00000200,21000000,,,,,,,-000.08,-000.15,0000.02,17.9,25.2,,00.0,0680.5,30.9
